,,,PA_Meas_PMT16A,,PR_Meas_QMR101_102,,RH_Meas_QMH101,,SR_Meas_QMS101,,TA_Meas_QMH101,,GenWind,,GenWind,
date,time,status,PA,status,PR,status,RH,status,SR,status,TA,status,DirAvg,status,SpdAvg,
2009-04-09, 00:00:04,VALID,1003.58,VALID,0,VALID,83.9253,VALID,0,VALID,25.8843,VALID,333,VALID,0.640625,
2009-04-09, 00:01:04,VALID,1003.6,VALID,0,VALID,83.6659,VALID,0,VALID,25.8843,VALID,357,VALID,0.702344,
2009-04-09, 00:02:04,VALID,1003.62,VALID,0,VALID,83.7193,VALID,0,VALID,25.8843,VALID,360,VALID,0.748047,
2009-04-09, 00:03:04,VALID,1003.65,VALID,0,VALID,84.0855,VALID,0,VALID,25.8648,VALID,2,VALID,0.312109,
2009-04-09, 00:04:04,VALID,1003.68,VALID,0,VALID,84.2839,VALID,0,VALID,25.8453,VALID,350,VALID,0.453516,
2009-04-09, 00:05:04,VALID,1003.72,VALID,0,VALID,84.8713,VALID,0,VALID,25.7869,VALID,350,VALID,0.321094,
2009-04-09, 00:06:04,VALID,1003.73,VALID,0,VALID,85.1841,VALID,0,VALID,25.709,VALID,350,VALID,0.225781,
2009-04-09, 00:07:04,VALID,1003.74,VALID,0,VALID,85.535,VALID,0,VALID,25.6506,VALID,350,VALID,0.108984,
2009-04-09, 00:08:04,VALID,1003.73,VALID,0,VALID,85.6037,VALID,0,VALID,25.5921,VALID,350,VALID,0.297656,
2009-04-09, 00:09:04,VALID,1003.73,VALID,0,VALID,85.7639,VALID,0,VALID,25.5941,VALID,355,VALID,0.548828,
2009-04-09, 00:10:04,VALID,1003.76,VALID,0,VALID,86.336,VALID,0,VALID,25.5337,VALID,355,VALID,0.479297,
2009-04-09, 00:11:04,VALID,1003.74,VALID,0,VALID,86.3589,VALID,0,VALID,25.4558,VALID,355,VALID,0.373047,
2009-04-09, 00:12:04,VALID,1003.74,VALID,0,VALID,86.2369,VALID,0,VALID,25.4149,VALID,356,VALID,0.590625,
2009-04-09, 00:13:04,VALID,1003.78,VALID,0,VALID,85.7715,VALID,0,VALID,25.4558,VALID,342,VALID,0.675781,
2009-04-09, 00:14:04,VALID,1003.76,VALID,0,VALID,85.3672,VALID,0,VALID,25.4928,VALID,336,VALID,0.780859,
2009-04-09, 00:15:04,VALID,1003.73,VALID,0,VALID,84.9552,VALID,0,VALID,25.5707,VALID,352,VALID,0.722656,
2009-04-09, 00:16:04,VALID,1003.69,VALID,0,VALID,84.3907,VALID,0,VALID,25.6486,VALID,348,VALID,0.844141,
2009-04-09, 00:17:04,VALID,1003.66,VALID,0,VALID,84.2228,VALID,0,VALID,25.7285,VALID,333,VALID,0.388672,
2009-04-09, 00:18:04,VALID,1003.63,VALID,0,VALID,84.322,VALID,0,VALID,25.7889,VALID,329,VALID,0.274609,
2009-04-09, 00:19:04,VALID,1003.57,VALID,0,VALID,84.3373,VALID,0,VALID,25.746,VALID,341,VALID,0.326562,
2009-04-09, 00:20:04,VALID,1003.49,VALID,0,VALID,83.9635,VALID,0,VALID,25.748,VALID,346,VALID,0.798047,
2009-04-09, 00:21:04,VALID,1003.47,VALID,0,VALID,83.4065,VALID,0,VALID,25.8259,VALID,352,VALID,0.9375,
2009-04-09, 00:22:04,VALID,1003.44,VALID,0,VALID,83.2921,VALID,0,VALID,25.8823,VALID,345,VALID,0.759375,
2009-04-09, 00:23:04,VALID,1003.43,VALID,0,VALID,83.1243,VALID,0,VALID,25.9232,VALID,339,VALID,0.515234,
2009-04-09, 00:24:04,VALID,1003.44,VALID,0,VALID,82.8344,VALID,0,VALID,25.9427,VALID,345,VALID,0.68125,
2009-04-09, 00:25:04,VALID,1003.42,VALID,0,VALID,82.9641,VALID,0,VALID,25.9427,VALID,345,VALID,0.733594,
2009-04-09, 00:26:04,VALID,1003.37,VALID,0,VALID,83.0251,VALID,0,VALID,25.9232,VALID,347,VALID,0.664063,
2009-04-09, 00:27:04,VALID,1003.38,VALID,0,VALID,83.0327,VALID,0,VALID,25.9038,VALID,345,VALID,0.775391,
2009-04-09, 00:28:04,VALID,1003.31,VALID,0,VALID,83.2921,VALID,0,VALID,25.9038,VALID,2,VALID,0.262891,
2009-04-09, 00:29:04,VALID,1003.26,VALID,0,VALID,83.2921,VALID,0,VALID,25.9038,VALID,359,VALID,0.658203,
2009-04-09, 00:30:04,VALID,1003.24,VALID,0,VALID,83.7346,VALID,0,VALID,25.8823,VALID,341,VALID,0.135937,
2009-04-09, 00:31:04,VALID,1003.22,VALID,0,VALID,83.2463,VALID,0,VALID,25.8629,VALID,351,VALID,0.238281,
2009-04-09, 00:32:04,VALID,1003.2,VALID,0,VALID,83.3455,VALID,0,VALID,25.8843,VALID,354,VALID,0.398047,
2009-04-09, 00:33:04,VALID,1003.23,VALID,0,VALID,83.4828,VALID,0.100563,VALID,25.8843,VALID,354,VALID,0.16875,
2009-04-09, 00:34:04,VALID,1003.21,VALID,0,VALID,83.4752,VALID,0,VALID,25.8648,VALID,354,VALID,0.165625,
2009-04-09, 00:35:04,VALID,1003.22,VALID,0,VALID,83.3379,VALID,0,VALID,25.8434,VALID,339,VALID,0.514453,
2009-04-09, 00:36:04,VALID,1003.22,VALID,0,VALID,84.0092,VALID,0,VALID,25.8453,VALID,355,VALID,0.340625,
2009-04-09, 00:37:04,VALID,1003.19,VALID,0,VALID,84.1618,VALID,0,VALID,25.785,VALID,355,VALID,0.0289063,
2009-04-09, 00:38:04,VALID,1003.18,VALID,0,VALID,84.383,VALID,0,VALID,25.7869,VALID,355,VALID,0.0015625,
2009-04-09, 00:39:04,VALID,1003.19,VALID,0,VALID,84.589,VALID,0,VALID,25.7285,VALID,355,VALID,0,
2009-04-09, 00:40:04,VALID,1003.18,VALID,0,VALID,84.6882,VALID,0,VALID,25.67,VALID,351,VALID,0.154687,
2009-04-09, 00:41:04,VALID,1003.21,VALID,0,VALID,84.6195,VALID,0,VALID,25.6311,VALID,351,VALID,0.451953,
2009-04-09, 00:42:04,VALID,1003.2,VALID,0,VALID,84.8103,VALID,0,VALID,25.6311,VALID,351,VALID,0.498828,
2009-04-09, 00:43:04,VALID,1003.21,VALID,0,VALID,85.2527,VALID,0,VALID,25.6311,VALID,351,VALID,0.497266,
2009-04-09, 00:44:04,VALID,1003.21,VALID,0,VALID,85.947,VALID,0,VALID,25.5921,VALID,351,VALID,0.260938,
2009-04-09, 00:45:04,VALID,1003.23,VALID,0,VALID,86.3894,VALID,0,VALID,25.4948,VALID,351,VALID,0.147266,
2009-04-09, 00:46:04,VALID,1003.24,VALID,0,VALID,86.5268,VALID,0,VALID,25.3974,VALID,351,VALID,0.233594,
2009-04-09, 00:47:04,VALID,1003.27,VALID,0,VALID,86.748,VALID,0,VALID,25.3584,VALID,351,VALID,0.159375,
2009-04-09, 00:48:04,VALID,1003.28,VALID,0,VALID,87.0455,VALID,0,VALID,25.3,VALID,351,VALID,0.208984,
2009-04-09, 00:49:04,VALID,1003.3,VALID,0,VALID,87.3583,VALID,0,VALID,25.2806,VALID,351,VALID,0.128516,
2009-04-09, 00:50:04,VALID,1003.33,VALID,0,VALID,87.5872,VALID,0,VALID,25.2416,VALID,351,VALID,0.344531,
2009-04-09, 00:51:04,VALID,1003.37,VALID,0,VALID,87.7932,VALID,0,VALID,25.1813,VALID,351,VALID,0.205469,
2009-04-09, 00:52:04,VALID,1003.37,VALID,0,VALID,88.1059,VALID,0,VALID,25.1423,VALID,17,VALID,0.542969,
2009-04-09, 00:53:04,VALID,1003.34,VALID,0,VALID,88.3348,VALID,0,VALID,25.1442,VALID,18,VALID,0.253906,
2009-04-09, 00:54:04,VALID,1003.4,VALID,0,VALID,88.6171,VALID,0,VALID,25.1053,VALID,18,VALID,0.375391,
2009-04-09, 00:55:04,VALID,1003.34,VALID,0,VALID,88.7849,VALID,0,VALID,25.0858,VALID,18,VALID,0.376563,
2009-04-09, 00:56:04,VALID,1003.35,VALID,0,VALID,89.0367,VALID,0,VALID,25.0469,VALID,18,VALID,0.333984,
2009-04-09, 00:57:04,VALID,1003.33,VALID,0,VALID,89.2045,VALID,0,VALID,25.0274,VALID,18,VALID,0.0273438,
2009-04-09, 00:58:04,VALID,1003.34,VALID,0,VALID,89.3723,VALID,0,VALID,25.0274,VALID,18,VALID,0.214062,
2009-04-09, 00:59:04,VALID,1003.32,VALID,0,VALID,89.5325,VALID,0,VALID,25.0079,VALID,18,VALID,0.202344,
2009-04-09, 01:00:04,VALID,1003.34,VALID,0,VALID,89.6165,VALID,0,VALID,24.9866,VALID,18,VALID,0.376563,
2009-04-09, 01:01:04,VALID,1003.28,VALID,0,VALID,89.9292,VALID,0,VALID,24.9866,VALID,18,VALID,0.443359,
2009-04-09, 01:02:04,VALID,1003.29,VALID,0,VALID,90.1505,VALID,0,VALID,24.9671,VALID,18,VALID,0.292969,
2009-04-09, 01:03:04,VALID,1003.26,VALID,0,VALID,90.3107,VALID,0,VALID,24.9476,VALID,18,VALID,0.394531,
2009-04-09, 01:04:04,VALID,1003.27,VALID,0,VALID,90.3031,VALID,0,VALID,24.9106,VALID,18,VALID,0.474219,
2009-04-09, 01:05:04,VALID,1003.28,VALID,0,VALID,90.5701,VALID,0,VALID,24.8911,VALID,18,VALID,0.39375,
2009-04-09, 01:06:04,VALID,1003.25,VALID,0,VALID,90.8066,VALID,0,VALID,24.8697,VALID,18,VALID,0.400391,
2009-04-09, 01:07:04,VALID,1003.24,VALID,0,VALID,90.9668,VALID,0,VALID,24.8522,VALID,18,VALID,0.364453,
2009-04-09, 01:08:04,VALID,1003.2,VALID,0,VALID,90.9897,VALID,0,VALID,24.8327,VALID,18,VALID,0.453125,
2009-04-09, 01:09:04,VALID,1003.16,VALID,0,VALID,91.1499,VALID,0,VALID,24.7919,VALID,18,VALID,0.332031,
2009-04-09, 01:10:04,VALID,1003.11,VALID,0,VALID,91.2643,VALID,0,VALID,24.8132,VALID,18,VALID,0.347656,
2009-04-09, 01:11:04,VALID,1003.1,VALID,0,VALID,91.3101,VALID,0.100563,VALID,24.7724,VALID,18,VALID,0.369141,
2009-04-09, 01:12:04,VALID,1003.07,VALID,0,VALID,91.3864,VALID,0,VALID,24.7724,VALID,18,VALID,0.284766,
2009-04-09, 01:13:04,VALID,1003.05,VALID,0,VALID,91.5161,VALID,0,VALID,24.7937,VALID,18,VALID,0.269922,
2009-04-09, 01:14:04,VALID,1003,VALID,0,VALID,91.6381,VALID,0,VALID,24.7529,VALID,18,VALID,0.279687,
2009-04-09, 01:15:04,VALID,1002.98,VALID,0,VALID,91.7754,VALID,0,VALID,24.7743,VALID,18,VALID,0.015625,
2009-04-09, 01:16:04,VALID,1002.97,VALID,0,VALID,91.8365,VALID,0,VALID,24.7548,VALID,18,VALID,0,
2009-04-09, 01:17:04,VALID,1002.91,VALID,0,VALID,91.8746,VALID,0,VALID,24.7159,VALID,18,VALID,0.277734,
2009-04-09, 01:18:04,VALID,1002.9,VALID,0,VALID,91.8822,VALID,0,VALID,24.675,VALID,18,VALID,0.374609,
2009-04-09, 01:19:04,VALID,1002.86,VALID,0,VALID,91.9814,VALID,0,VALID,24.6556,VALID,18,VALID,0.509766,
2009-04-09, 01:20:04,VALID,1002.83,VALID,0,VALID,92.0577,VALID,0,VALID,24.6769,VALID,17,VALID,0.661719,
2009-04-09, 01:21:04,VALID,1002.79,VALID,0,VALID,92.1492,VALID,0,VALID,24.6769,VALID,17,VALID,0.501562,
2009-04-09, 01:22:04,VALID,1002.77,VALID,0,VALID,92.2027,VALID,0,VALID,24.6574,VALID,17,VALID,0.544141,
2009-04-09, 01:23:04,VALID,1002.76,VALID,0,VALID,92.3095,VALID,0,VALID,24.6574,VALID,17,VALID,0.559766,
2009-04-09, 01:24:04,VALID,1002.72,VALID,0,VALID,92.3857,VALID,0,VALID,24.6166,VALID,17,VALID,0.477344,
2009-04-09, 01:25:05,VALID,1002.69,VALID,0,VALID,92.4163,VALID,0,VALID,24.5777,VALID,17,VALID,0.564844,
2009-04-09, 01:26:05,VALID,1002.68,VALID,0,VALID,92.4773,VALID,0,VALID,24.6185,VALID,17,VALID,0.582422,
2009-04-09, 01:27:05,VALID,1002.65,VALID,0,VALID,92.5612,VALID,0,VALID,24.5972,VALID,17,VALID,0.455469,
2009-04-09, 01:28:05,VALID,1002.61,VALID,0,VALID,92.6146,VALID,0,VALID,24.6185,VALID,17,VALID,0.414453,
2009-04-09, 01:29:05,VALID,1002.56,VALID,0,VALID,92.5002,VALID,0,VALID,24.5972,VALID,17,VALID,0.308984,
2009-04-09, 01:30:05,VALID,1002.53,VALID,0,VALID,92.5078,VALID,0,VALID,24.599,VALID,17,VALID,0.4625,
2009-04-09, 01:31:05,VALID,1002.53,VALID,0,VALID,92.3857,VALID,0,VALID,24.599,VALID,17,VALID,0.388672,
2009-04-09, 01:32:05,VALID,1002.53,VALID,0,VALID,92.4468,VALID,0,VALID,24.638,VALID,17,VALID,0.44375,
2009-04-09, 01:33:05,VALID,1002.53,VALID,0,VALID,92.4544,VALID,0,VALID,24.6361,VALID,17,VALID,0.503906,
2009-04-09, 01:34:05,VALID,1002.54,VALID,0,VALID,92.5002,VALID,0,VALID,24.6574,VALID,17,VALID,0.453516,
2009-04-09, 01:35:05,VALID,1002.52,VALID,0,VALID,92.5002,VALID,0,VALID,24.6574,VALID,17,VALID,0.524219,
2009-04-09, 01:36:05,VALID,1002.55,VALID,0,VALID,92.4849,VALID,0,VALID,24.638,VALID,17,VALID,0.472266,
2009-04-09, 01:37:05,VALID,1002.53,VALID,0,VALID,92.5307,VALID,0,VALID,24.638,VALID,17,VALID,0.430469,
2009-04-09, 01:38:05,VALID,1002.53,VALID,0,VALID,92.6146,VALID,0,VALID,24.638,VALID,17,VALID,0.335938,
2009-04-09, 01:39:05,VALID,1002.53,VALID,0,VALID,92.607,VALID,0,VALID,24.5972,VALID,17,VALID,0.379687,
2009-04-09, 01:40:05,VALID,1002.54,VALID,0,VALID,92.6833,VALID,0,VALID,24.5972,VALID,17,VALID,0.370703,
2009-04-09, 01:41:05,VALID,1002.53,VALID,0,VALID,92.7062,VALID,0,VALID,24.6185,VALID,17,VALID,0.382031,
2009-04-09, 01:42:05,VALID,1002.54,VALID,0,VALID,92.7367,VALID,0,VALID,24.6185,VALID,17,VALID,0.386328,
2009-04-09, 01:43:05,VALID,1002.54,VALID,0,VALID,92.7367,VALID,0,VALID,24.5972,VALID,17,VALID,0.408203,
2009-04-09, 01:44:05,VALID,1002.54,VALID,0,VALID,92.7901,VALID,0.100563,VALID,24.638,VALID,17,VALID,0.402734,
2009-04-09, 01:45:05,VALID,1002.55,VALID,0,VALID,92.7519,VALID,0,VALID,24.5972,VALID,17,VALID,0.429688,
2009-04-09, 01:46:05,VALID,1002.54,VALID,0,VALID,92.7824,VALID,0,VALID,24.6166,VALID,17,VALID,0.477344,
2009-04-09, 01:47:05,VALID,1002.54,VALID,0,VALID,92.7901,VALID,0.100563,VALID,24.6166,VALID,17,VALID,0.308594,
2009-04-09, 01:48:05,VALID,1002.51,VALID,0,VALID,92.813,VALID,0,VALID,24.6166,VALID,17,VALID,0.387891,
2009-04-09, 01:49:05,VALID,1002.51,VALID,0,VALID,92.8206,VALID,0.100563,VALID,24.6361,VALID,17,VALID,0.350781,
2009-04-09, 01:50:05,VALID,1002.49,VALID,0,VALID,92.8511,VALID,0,VALID,24.6769,VALID,17,VALID,0.313281,
2009-04-09, 01:51:05,VALID,1002.48,VALID,0,VALID,92.8664,VALID,0,VALID,24.6964,VALID,17,VALID,0.342969,
2009-04-09, 01:52:05,VALID,1002.49,VALID,0,VALID,92.7824,VALID,0,VALID,24.675,VALID,17,VALID,0.315234,
2009-04-09, 01:53:05,VALID,1002.52,VALID,0,VALID,92.7901,VALID,0,VALID,24.6964,VALID,17,VALID,0.203125,
2009-04-09, 01:54:05,VALID,1002.52,VALID,0,VALID,92.7214,VALID,0.100563,VALID,24.6945,VALID,17,VALID,0.345313,
2009-04-09, 01:55:05,VALID,1002.53,VALID,0,VALID,92.6909,VALID,0,VALID,24.6945,VALID,17,VALID,0.277734,
2009-04-09, 01:56:05,VALID,1002.56,VALID,0,VALID,92.6604,VALID,0,VALID,24.6945,VALID,17,VALID,0.284766,
2009-04-09, 01:57:05,VALID,1002.55,VALID,0,VALID,92.6375,VALID,0.100563,VALID,24.7159,VALID,17,VALID,0.216797,
2009-04-09, 01:58:05,VALID,1002.59,VALID,0,VALID,92.6833,VALID,0,VALID,24.7353,VALID,17,VALID,0.389062,
2009-04-09, 01:59:05,VALID,1002.6,VALID,0,VALID,92.7748,VALID,0,VALID,24.7743,VALID,17,VALID,0.401953,
2009-04-09, 02:00:05,VALID,1002.6,VALID,0,VALID,92.7596,VALID,0.100563,VALID,24.7316,VALID,17,VALID,0.425391,
2009-04-09, 02:01:05,VALID,1002.59,VALID,0,VALID,92.7062,VALID,0,VALID,24.7548,VALID,17,VALID,0.441016,
2009-04-09, 02:02:05,VALID,1002.59,VALID,0,VALID,92.6833,VALID,0.100563,VALID,24.7335,VALID,17,VALID,0.394141,
2009-04-09, 02:03:05,VALID,1002.63,VALID,0,VALID,92.7748,VALID,0,VALID,24.7743,VALID,17,VALID,0.382813,
2009-04-09, 02:04:05,VALID,1002.59,VALID,0,VALID,92.7443,VALID,0,VALID,24.7529,VALID,17,VALID,0.277734,
2009-04-09, 02:05:05,VALID,1002.58,VALID,0,VALID,92.729,VALID,0,VALID,24.714,VALID,17,VALID,0.339453,
2009-04-09, 02:06:05,VALID,1002.59,VALID,0,VALID,92.7519,VALID,0.100563,VALID,24.7529,VALID,17,VALID,0.446875,
2009-04-09, 02:07:05,VALID,1002.59,VALID,0,VALID,92.6985,VALID,0,VALID,24.7335,VALID,17,VALID,0.397266,
2009-04-09, 02:08:05,VALID,1002.58,VALID,0,VALID,92.7748,VALID,0.100563,VALID,24.7335,VALID,17,VALID,0.282813,
2009-04-09, 02:09:05,VALID,1002.59,VALID,0,VALID,92.7901,VALID,0,VALID,24.7548,VALID,17,VALID,0.441797,
2009-04-09, 02:10:05,VALID,1002.56,VALID,0,VALID,92.7748,VALID,0,VALID,24.7335,VALID,17,VALID,0.457812,
2009-04-09, 02:11:05,VALID,1002.57,VALID,0,VALID,92.7443,VALID,0.100563,VALID,24.714,VALID,17,VALID,0.655469,
2009-04-09, 02:12:05,VALID,1002.56,VALID,0,VALID,92.7824,VALID,0.100563,VALID,24.7335,VALID,17,VALID,0.455859,
2009-04-09, 02:13:05,VALID,1002.56,VALID,0,VALID,92.7596,VALID,0.100563,VALID,24.714,VALID,17,VALID,0.534766,
2009-04-09, 02:14:05,VALID,1002.58,VALID,0,VALID,92.7901,VALID,0,VALID,24.714,VALID,17,VALID,0.214453,
2009-04-09, 02:15:05,VALID,1002.54,VALID,0,VALID,92.8206,VALID,0.100563,VALID,24.6945,VALID,17,VALID,0.232422,
2009-04-09, 02:16:05,VALID,1002.54,VALID,0,VALID,92.874,VALID,0.100563,VALID,24.675,VALID,17,VALID,0.0078125,
2009-04-09, 02:17:05,VALID,1002.53,VALID,0,VALID,92.8358,VALID,0,VALID,24.6945,VALID,17,VALID,0.0117188,
2009-04-09, 02:18:05,VALID,1002.48,VALID,0,VALID,92.7901,VALID,0.100563,VALID,24.6732,VALID,17,VALID,0.276953,
2009-04-09, 02:19:05,VALID,1002.46,VALID,0,VALID,92.7901,VALID,0,VALID,24.714,VALID,17,VALID,0.166406,
2009-04-09, 02:20:05,VALID,1002.47,VALID,0,VALID,92.7214,VALID,0.100563,VALID,24.714,VALID,17,VALID,0.110156,
2009-04-09, 02:21:05,VALID,1002.43,VALID,0,VALID,92.7672,VALID,0.100563,VALID,24.7335,VALID,17,VALID,0.0535156,
2009-04-09, 02:22:05,VALID,1002.43,VALID,0,VALID,92.6528,VALID,0.100563,VALID,24.7529,VALID,17,VALID,0,
2009-04-09, 02:23:05,VALID,1002.41,VALID,0,VALID,92.6146,VALID,0.100563,VALID,24.7724,VALID,17,VALID,0,
2009-04-09, 02:24:05,VALID,1002.42,VALID,0,VALID,92.4849,VALID,0.100563,VALID,24.7724,VALID,17,VALID,0,
2009-04-09, 02:25:05,VALID,1002.35,VALID,0,VALID,92.4163,VALID,0,VALID,24.854,VALID,17,VALID,0,
2009-04-09, 02:26:05,VALID,1002.37,VALID,0,VALID,92.3781,VALID,0.100563,VALID,24.8522,VALID,17,VALID,0,
2009-04-09, 02:27:05,VALID,1002.33,VALID,0,VALID,92.3171,VALID,0.100563,VALID,24.8522,VALID,17,VALID,0,
2009-04-09, 02:28:05,VALID,1002.3,VALID,0,VALID,92.3323,VALID,0.100563,VALID,24.8716,VALID,17,VALID,0.0269531,
2009-04-09, 02:29:05,VALID,1002.27,VALID,0,VALID,92.34,VALID,0.100563,VALID,24.8503,VALID,17,VALID,0.423047,
2009-04-09, 02:30:05,VALID,1002.25,VALID,0,VALID,92.3171,VALID,0,VALID,24.8522,VALID,17,VALID,0.510156,
2009-04-09, 02:31:05,VALID,1002.22,VALID,0,VALID,92.401,VALID,0.100563,VALID,24.8113,VALID,17,VALID,0.419141,
2009-04-09, 02:32:05,VALID,1002.22,VALID,0,VALID,92.4544,VALID,0,VALID,24.7919,VALID,17,VALID,0.622266,
2009-04-09, 02:33:05,VALID,1002.22,VALID,0,VALID,92.4925,VALID,0,VALID,24.7529,VALID,17,VALID,0.487109,
2009-04-09, 02:34:05,VALID,1002.25,VALID,0,VALID,92.5231,VALID,0.100563,VALID,24.7335,VALID,17,VALID,0.492188,
2009-04-09, 02:35:05,VALID,1002.22,VALID,0,VALID,92.5765,VALID,0,VALID,24.714,VALID,17,VALID,0.414453,
2009-04-09, 02:36:05,VALID,1002.22,VALID,0,VALID,92.6833,VALID,0,VALID,24.6945,VALID,17,VALID,0.359766,
2009-04-09, 02:37:05,VALID,1002.22,VALID,0,VALID,92.7596,VALID,0,VALID,24.714,VALID,17,VALID,0.373047,
2009-04-09, 02:38:05,VALID,1002.27,VALID,0,VALID,92.8587,VALID,0,VALID,24.7159,VALID,17,VALID,0.370313,
2009-04-09, 02:39:05,VALID,1002.25,VALID,0,VALID,92.9274,VALID,0.100563,VALID,24.7159,VALID,17,VALID,0.164453,
2009-04-09, 02:40:05,VALID,1002.28,VALID,0,VALID,92.9655,VALID,0.100563,VALID,24.714,VALID,17,VALID,0,
2009-04-09, 02:41:05,VALID,1002.31,VALID,0,VALID,92.9045,VALID,0,VALID,24.6945,VALID,17,VALID,0,
2009-04-09, 02:42:05,VALID,1002.35,VALID,0,VALID,92.874,VALID,0,VALID,24.675,VALID,17,VALID,0.35,
2009-04-09, 02:43:05,VALID,1002.36,VALID,0,VALID,92.8435,VALID,0,VALID,24.6964,VALID,17,VALID,0.278125,
2009-04-09, 02:44:05,VALID,1002.34,VALID,0,VALID,92.9274,VALID,0,VALID,24.6945,VALID,17,VALID,0.203906,
2009-04-09, 02:45:05,VALID,1002.31,VALID,0,VALID,92.9655,VALID,0,VALID,24.7159,VALID,17,VALID,0,
2009-04-09, 02:46:05,VALID,1002.34,VALID,0,VALID,92.9732,VALID,0,VALID,24.7159,VALID,17,VALID,0,
2009-04-09, 02:47:05,VALID,1002.33,VALID,0,VALID,92.9961,VALID,0,VALID,24.6945,VALID,17,VALID,0,
2009-04-09, 02:48:05,VALID,1002.28,VALID,0,VALID,92.9426,VALID,0,VALID,24.7159,VALID,17,VALID,0.240234,
2009-04-09, 02:49:05,VALID,1002.28,VALID,0,VALID,92.8892,VALID,0,VALID,24.6964,VALID,17,VALID,0.0117188,
2009-04-09, 02:50:05,VALID,1002.25,VALID,0,VALID,92.9274,VALID,0,VALID,24.6964,VALID,17,VALID,0.123047,
2009-04-09, 02:51:05,VALID,1002.23,VALID,0,VALID,92.9426,VALID,0,VALID,24.7159,VALID,17,VALID,0.00585938,
2009-04-09, 02:52:05,VALID,1002.21,VALID,0,VALID,92.9503,VALID,0,VALID,24.7159,VALID,17,VALID,0.0140625,
2009-04-09, 02:53:05,VALID,1002.22,VALID,0,VALID,92.9732,VALID,0,VALID,24.7335,VALID,17,VALID,0,
2009-04-09, 02:54:05,VALID,1002.2,VALID,0,VALID,92.9884,VALID,0,VALID,24.7548,VALID,17,VALID,0.194141,
2009-04-09, 02:55:05,VALID,1002.21,VALID,0,VALID,92.874,VALID,0,VALID,24.7335,VALID,17,VALID,0.226172,
2009-04-09, 02:56:05,VALID,1002.2,VALID,0,VALID,92.9884,VALID,0,VALID,24.7743,VALID,17,VALID,0.358594,
2009-04-09, 02:57:05,VALID,1002.19,VALID,0,VALID,92.9121,VALID,0,VALID,24.7743,VALID,17,VALID,0.0832031,
2009-04-09, 02:58:05,VALID,1002.17,VALID,0,VALID,92.874,VALID,0,VALID,24.7937,VALID,17,VALID,0.167578,
2009-04-09, 02:59:05,VALID,1002.17,VALID,0,VALID,92.7901,VALID,0,VALID,24.7919,VALID,17,VALID,0.389453,
2009-04-09, 03:00:05,VALID,1002.15,VALID,0,VALID,92.7901,VALID,0,VALID,24.8132,VALID,17,VALID,0.548828,
2009-04-09, 03:01:05,VALID,1002.15,VALID,0,VALID,92.7748,VALID,0,VALID,24.8132,VALID,17,VALID,0.430859,
2009-04-09, 03:02:05,VALID,1002.14,VALID,0,VALID,92.6451,VALID,0,VALID,24.8151,VALID,16,VALID,0.508203,
2009-04-09, 03:03:05,VALID,1002.17,VALID,0,VALID,92.7367,VALID,0,VALID,24.8327,VALID,16,VALID,0.538672,
2009-04-09, 03:04:05,VALID,1002.16,VALID,0,VALID,92.6833,VALID,0,VALID,24.8132,VALID,16,VALID,0.570703,
2009-04-09, 03:05:05,VALID,1002.18,VALID,0,VALID,92.6756,VALID,0,VALID,24.8132,VALID,16,VALID,0.524219,
2009-04-09, 03:06:05,VALID,1002.23,VALID,0,VALID,92.6833,VALID,0,VALID,24.7937,VALID,16,VALID,0.415625,
2009-04-09, 03:07:05,VALID,1002.29,VALID,0,VALID,92.7443,VALID,0,VALID,24.7937,VALID,16,VALID,0.340625,
2009-04-09, 03:08:05,VALID,1002.29,VALID,0,VALID,92.7214,VALID,0,VALID,24.7743,VALID,16,VALID,0.307422,
2009-04-09, 03:09:05,VALID,1002.37,VALID,0,VALID,92.7138,VALID,0,VALID,24.7743,VALID,16,VALID,0.180078,
2009-04-09, 03:10:05,VALID,1002.36,VALID,0,VALID,92.7596,VALID,0,VALID,24.7743,VALID,16,VALID,0.125391,
2009-04-09, 03:11:05,VALID,1002.41,VALID,0,VALID,92.6909,VALID,0,VALID,24.7529,VALID,16,VALID,0.125,
2009-04-09, 03:12:05,VALID,1002.41,VALID,0,VALID,92.6451,VALID,0,VALID,24.7743,VALID,16,VALID,0.00390625,
2009-04-09, 03:13:05,VALID,1002.43,VALID,0,VALID,92.6375,VALID,0,VALID,24.7937,VALID,16,VALID,0.272266,
2009-04-09, 03:14:05,VALID,1002.44,VALID,0,VALID,92.5917,VALID,0,VALID,24.7724,VALID,16,VALID,0.170312,
2009-04-09, 03:15:05,VALID,1002.45,VALID,0,VALID,92.6146,VALID,0,VALID,24.8132,VALID,16,VALID,0,
2009-04-09, 03:16:05,VALID,1002.45,VALID,0,VALID,92.6375,VALID,0,VALID,24.8327,VALID,16,VALID,0.155469,
2009-04-09, 03:17:05,VALID,1002.43,VALID,0,VALID,92.6375,VALID,0,VALID,24.8327,VALID,16,VALID,0.371875,
2009-04-09, 03:18:05,VALID,1002.42,VALID,0,VALID,92.6146,VALID,0,VALID,24.8327,VALID,16,VALID,0.173828,
2009-04-09, 03:19:05,VALID,1002.41,VALID,0,VALID,92.6451,VALID,0,VALID,24.8308,VALID,16,VALID,0.414844,
2009-04-09, 03:20:05,VALID,1002.39,VALID,0,VALID,92.5536,VALID,0,VALID,24.8327,VALID,16,VALID,0.503516,
2009-04-09, 03:21:05,VALID,1002.4,VALID,0,VALID,92.3629,VALID,0,VALID,24.7937,VALID,11,VALID,0.532422,
2009-04-09, 03:22:05,VALID,1002.38,VALID,0,VALID,92.3247,VALID,0,VALID,24.8132,VALID,11,VALID,0.55,
2009-04-09, 03:23:05,VALID,1002.4,VALID,0,VALID,92.2713,VALID,0,VALID,24.7919,VALID,11,VALID,0.440625,
2009-04-09, 03:24:05,VALID,1002.42,VALID,0,VALID,92.1264,VALID,0,VALID,24.7743,VALID,11,VALID,0.423047,
2009-04-09, 03:25:05,VALID,1002.43,VALID,0,VALID,92.0348,VALID,0,VALID,24.7743,VALID,11,VALID,0.210547,
2009-04-09, 03:26:05,VALID,1002.45,VALID,0,VALID,92.0806,VALID,0,VALID,24.7919,VALID,11,VALID,0.445313,
2009-04-09, 03:27:05,VALID,1002.51,VALID,0,VALID,92.2255,VALID,0,VALID,24.8132,VALID,11,VALID,0.0921875,
2009-04-09, 03:28:05,VALID,1002.52,VALID,0,VALID,92.2942,VALID,0,VALID,24.8327,VALID,11,VALID,0,
2009-04-09, 03:29:05,VALID,1002.53,VALID,0,VALID,92.2561,VALID,0,VALID,24.8327,VALID,11,VALID,0,
2009-04-09, 03:30:05,VALID,1002.57,VALID,0,VALID,92.1798,VALID,0,VALID,24.8132,VALID,22,VALID,0.665234,
2009-04-09, 03:31:05,VALID,1002.6,VALID,0,VALID,92.2408,VALID,0,VALID,24.7724,VALID,22,VALID,0.554297,
2009-04-09, 03:32:05,VALID,1002.62,VALID,0,VALID,92.3476,VALID,0,VALID,24.7937,VALID,22,VALID,0.514063,
2009-04-09, 03:33:05,VALID,1002.63,VALID,0,VALID,92.3934,VALID,0,VALID,24.7937,VALID,22,VALID,0.711328,
2009-04-09, 03:34:05,VALID,1002.66,VALID,0,VALID,92.462,VALID,0,VALID,24.7743,VALID,22,VALID,0.443359,
2009-04-09, 03:35:05,VALID,1002.68,VALID,0,VALID,92.4925,VALID,0,VALID,24.7548,VALID,22,VALID,0.368359,
2009-04-09, 03:36:05,VALID,1002.68,VALID,0,VALID,92.401,VALID,0,VALID,24.7353,VALID,22,VALID,0.222656,
2009-04-09, 03:37:05,VALID,1002.69,VALID,0,VALID,92.4163,VALID,0,VALID,24.7353,VALID,22,VALID,0.522656,
2009-04-09, 03:38:05,VALID,1002.68,VALID,0,VALID,92.195,VALID,0,VALID,24.6945,VALID,1,VALID,0.579297,
2009-04-09, 03:39:05,VALID,1002.66,VALID,0,VALID,92.195,VALID,0,VALID,24.6945,VALID,360,VALID,0.379687,
2009-04-09, 03:40:05,VALID,1002.66,VALID,0,VALID,92.3018,VALID,0,VALID,24.7548,VALID,360,VALID,0.430078,
2009-04-09, 03:41:05,VALID,1002.65,VALID,0,VALID,92.2484,VALID,0,VALID,24.7335,VALID,8,VALID,0.719531,
2009-04-09, 03:42:05,VALID,1002.66,VALID,0,VALID,92.134,VALID,0,VALID,24.7529,VALID,5,VALID,0.78125,
2009-04-09, 03:43:05,VALID,1002.66,VALID,0,VALID,91.8517,VALID,0,VALID,24.7548,VALID,15,VALID,0.573438,
2009-04-09, 03:44:05,VALID,1002.67,VALID,0,VALID,91.2033,VALID,0,VALID,24.8132,VALID,40,VALID,0.812109,
2009-04-09, 03:45:05,VALID,1002.66,VALID,0,VALID,89.8072,VALID,0,VALID,24.9514,VALID,39,VALID,1.55273,